GW6990 Weather Reports


time (UTC)temp
C
wind
direction
speed
KPH
gust
KPH
rain 1hr
cm
rain 24hr
cm
rain mn
cm
humidity
%
barometer
mb
20260504035446 13 280 0.0 0.0 0.00 0.00 0.00 69 1022.6
20260504034942 13 251 0.0 0.0 0.00 0.00 0.00 70 1022.6
20260504034440 13 233 0.0 0.0 0.00 0.00 0.00 73 1022.6
20260504033937 13 232 0.0 0.0 0.00 0.00 0.00 73 1022.5
20260504033434 14 178 0.0 0.0 0.00 0.00 0.00 72 1022.6
20260504032931 14 189 0.0 0.0 0.00 0.00 0.00 71 1022.6
20260504032428 15 311 0.0 0.0 0.00 0.00 0.00 62 1022.5
20260504031925 15 311 0.0 0.0 0.00 0.00 0.00 62 1022.8
20260504031422 15 307 0.0 0.0 0.00 0.00 0.00 65 1022.6
20260504030919 15 307 0.0 0.0 0.00 0.00 0.00 63 1022.7
20260504030416 15 305 0.0 0.0 0.00 0.00 0.00 62 1022.8
20260504025912 15 282 0.0 0.0 0.00 0.00 0.00 59 1022.7
20260504025409 16 274 0.0 0.0 0.00 0.00 0.00 57 1022.8
20260504024906 16 289 0.0 0.0 0.00 0.00 0.00 58 1022.8
20260504024402 16 298 0.0 0.0 0.00 0.00 0.00 58 1022.4
20260504023900 16 294 0.0 0.0 0.00 0.00 0.00 60 1022.7
20260504023356 16 281 0.0 1.6 0.00 0.00 0.00 59 1022.5
20260504022851 16 263 0.0 0.0 0.00 0.00 0.00 56 1022.6
20260504022348 16 304 1.6 3.2 0.00 0.00 0.00 56 1022.4
20260504021845 16 281 1.6 1.6 0.00 0.00 0.00 57 1022.5
20260504021342 16 268 0.0 1.6 0.00 0.00 0.00 58 1022.3
20260504020839 16 295 0.0 0.0 0.00 0.00 0.00 57 1022.2
20260504020336 16 288 1.6 1.6 0.00 0.00 0.00 57 1022.1
20260504015832 16 295 0.0 0.0 0.00 0.00 0.00 57 1022.1
20260504015328 16 306 0.0 0.0 0.00 0.00 0.00 57 1022.2
20260504014825 16 292 0.0 0.0 0.00 0.00 0.00 55 1022.0
20260504014320 16 311 0.0 0.0 0.00 0.00 0.00 56 1022.0
20260504013819 16 307 0.0 0.0 0.00 0.00 0.00 56 1022.1
20260504013316 17 323 0.0 0.0 0.00 0.00 0.00 54 1021.8
20260504012813 17 327 0.0 0.0 0.00 0.00 0.00 53 1021.8
20260504012310 17 321 0.0 0.0 0.00 0.00 0.00 52 1021.8
20260504011808 18 302 0.0 0.0 0.00 0.00 0.00 51 1021.8
20260504011304 18 287 0.0 0.0 0.00 0.00 0.00 50 1021.9
20260504010800 18 304 0.0 1.6 0.00 0.00 0.00 48 1021.8
20260504010255 18 281 0.0 0.0 0.00 0.00 0.00 47 1021.7
20260504005753 18 285 0.0 1.6 0.00 0.00 0.00 48 1021.3
20260504005249 18 277 0.0 0.0 0.00 0.00 0.00 49 1021.5
20260504004747 18 320 1.6 1.6 0.00 0.00 0.00 50 1021.6
20260504004244 19 276 0.0 0.0 0.00 0.00 0.00 49 1021.3
20260504003741 19 281 0.0 0.0 0.00 0.00 0.00 48 1021.4
20260504003238 20 272 0.0 1.6 0.00 0.00 0.00 47 1021.3
20260504002734 20 313 0.0 0.0 0.00 0.00 0.00 45 1021.3
20260504002231 20 318 0.0 0.0 0.00 0.00 0.00 45 1021.0
20260504001729 21 285 0.0 0.0 0.00 0.00 0.00 44 1021.2
20260504001226 21 266 0.0 0.0 0.00 0.00 0.00 41 1021.3
20260504000722 21 266 1.6 1.6 0.00 0.00 0.00 41 1021.2
20260504000219 22 272 0.0 0.0 0.00 0.00 0.00 40 1021.1
20260503235718 23 257 0.0 0.0 0.00 0.00 0.00 37 1021.2
20260503235214 23 259 1.6 1.6 0.00 0.00 0.00 34 1021.2
20260503234712 23 251 0.0 0.0 0.00 0.00 0.00 34 1021.3
20260503234210 23 302 1.6 1.6 0.00 0.00 0.00 34 1020.9
20260503233707 24 278 3.2 3.2 0.00 0.00 0.00 32 1020.9
20260503233202 24 281 3.2 4.8 0.00 0.00 0.00 32 1021.0
20260503232659 24 263 1.6 1.6 0.00 0.00 0.00 32 1021.2
20260503232157 25 283 3.2 6.4 0.00 0.00 0.00 31 1021.2
20260503231655 25 273 1.6 1.6 0.00 0.00 0.00 31 1021.3
20260503231151 25 30 0.0 1.6 0.00 0.00 0.00 30 1021.2
20260503230648 25 239 0.0 0.0 0.00 0.00 0.00 31 1021.4
20260503230145 25 282 3.2 3.2 0.00 0.00 0.00 29 1021.5
20260503225642 25 292 1.6 1.6 0.00 0.00 0.00 30 1021.2
20260503225142 25 347 4.8 6.4 0.00 0.00 0.00 29 1021.1
20260503224640 25 252 8.0 9.7 0.00 0.00 0.00 27 1021.2
20260503224137 25 274 3.2 3.2 0.00 0.00 0.00 28 1021.0
20260503223635 25 238 0.0 0.0 0.00 0.00 0.00 26 1021.1
20260503223131 25 45 1.6 1.6 0.00 0.00 0.00 28 1021.2
20260503222629 25 241 4.8 4.8 0.00 0.00 0.00 26 1021.2
20260503222126 25 197 3.2 3.2 0.00 0.00 0.00 27 1021.2
20260503221625 25 295 3.2 4.8 0.00 0.00 0.00 30 1021.1
20260503221122 25 282 4.8 6.4 0.00 0.00 0.00 26 1021.2
20260503220618 25 265 9.7 12.9 0.00 0.00 0.00 26 1021.0
20260503220115 26 291 3.2 4.8 0.00 0.00 0.00 26 1021.1
20260503215612 25 232 0.0 0.0 0.00 0.00 0.00 27 1021.2
20260503215108 25 242 3.2 3.2 0.00 0.00 0.00 25 1021.2
20260503214607 25 247 3.2 4.8 0.00 0.00 0.00 26 1021.3
20260503214103 26 291 8.0 11.3 0.00 0.00 0.00 25 1021.3
20260503213602 25 343 6.4 9.7 0.00 0.00 0.00 29 1021.2
20260503213058 25 283 6.4 9.7 0.00 0.00 0.00 26 1021.5
20260503212555 25 294 6.4 6.4 0.00 0.00 0.00 26 1021.5
20260503212053 25 306 8.0 9.7 0.00 0.00 0.00 26 1021.8
20260503211550 25 6 0.0 0.0 0.00 0.00 0.00 27 1021.4
20260503211045 25 272 8.0 12.9 0.00 0.00 0.00 26 1021.8
20260503210542 26 294 9.7 17.7 0.00 0.00 0.00 26 1021.8
20260503210038 26 358 3.2 3.2 0.00 0.00 0.00 30 1021.6
20260503205535 25 90 1.6 3.2 0.00 0.00 0.00 28 1021.6
20260503205031 25 266 8.0 9.7 0.00 0.00 0.00 26 1022.0
20260503204528 25 297 11.3 14.5 0.00 0.00 0.00 26 1021.8
20260503204025 25 294 8.0 11.3 0.00 0.00 0.00 26 1022.1
20260503203523 25 285 8.0 9.7 0.00 0.00 0.00 28 1022.0
20260503203020 25 239 6.4 6.4 0.00 0.00 0.00 26 1022.0
20260503202517 25 285 9.7 12.9 0.00 0.00 0.00 26 1021.9
20260503202015 25 282 6.4 9.7 0.00 0.00 0.00 27 1022.1
20260503201513 25 279 3.2 4.8 0.00 0.00 0.00 29 1022.1
20260503201010 26 211 4.8 4.8 0.00 0.00 0.00 26 1022.3
20260503200506 26 23 3.2 3.2 0.00 0.00 0.00 31 1022.3
20260503200003 25 265 4.8 4.8 0.00 0.00 0.00 28 1022.3
20260503195500 26 259 8.0 9.7 0.00 0.00 0.00 26 1022.4
20260503194956 25 253 4.8 6.4 0.00 0.00 0.00 27 1022.6
20260503194454 26 298 3.2 3.2 0.00 0.00 0.00 25 1022.8
20260503193949 26 245 0.0 0.0 0.00 0.00 0.00 27 1022.8
20260503193445 25 218 0.0 1.6 0.00 0.00 0.00 30 1022.9
20260503192940 25 262 3.2 4.8 0.00 0.00 0.00 27 1023.1
20260503192437 24 225 8.0 11.3 0.00 0.00 0.00 28 1023.0
20260503191932 25 354 3.2 3.2 0.00 0.00 0.00 27 1023.0
20260503191431 25 260 1.6 3.2 0.00 0.00 0.00 27 1023.2
20260503190927 25 237 1.6 1.6 0.00 0.00 0.00 28 1023.2
20260503190424 25 359 3.2 3.2 0.00 0.00 0.00 28 1023.5
20260503185921 25 270 3.2 3.2 0.00 0.00 0.00 30 1023.5
20260503185418 25 226 1.6 1.6 0.00 0.00 0.00 26 1023.5
20260503184916 25 95 6.4 9.7 0.00 0.00 0.00 29 1023.9
20260503184414 25 314 3.2 3.2 0.00 0.00 0.00 30 1023.9
20260503183910 23 223 3.2 6.4 0.00 0.00 0.00 30 1024.0
20260503183406 24 226 6.4 6.4 0.00 0.00 0.00 27 1023.8
20260503182903 23 315 8.0 11.3 0.00 0.00 0.00 27 1024.1
20260503182402 24 273 8.0 11.3 0.00 0.00 0.00 29 1024.0
20260503181859 24 278 6.4 9.7 0.00 0.00 0.00 30 1024.0
20260503181356 24 85 8.0 9.7 0.00 0.00 0.00 29 1024.0
20260503180852 23 248 6.4 11.3 0.00 0.00 0.00 29 1023.9
20260503180351 23 271 4.8 6.4 0.00 0.00 0.00 27 1024.2
20260503175847 24 250 9.7 12.9 0.00 0.00 0.00 26 1023.9
20260503175345 23 346 4.8 4.8 0.00 0.00 0.00 32 1024.1
20260503174841 23 279 11.3 14.5 0.00 0.00 0.00 30 1023.9
20260503174340 23 13 3.2 4.8 0.00 0.00 0.00 28 1024.1
20260503173839 23 334 3.2 3.2 0.00 0.00 0.00 31 1024.2
20260503173336 23 295 9.7 12.9 0.00 0.00 0.00 28 1024.4
20260503172833 23 287 8.0 11.3 0.00 0.00 0.00 28 1024.3
20260503172331 23 247 1.6 1.6 0.00 0.00 0.00 32 1024.4
20260503171831 23 302 9.7 12.9 0.00 0.00 0.00 29 1024.6
20260503171329 23 280 6.4 6.4 0.00 0.00 0.00 28 1024.6
20260503170826 23 289 14.5 22.5 0.00 0.00 0.00 27 1024.7
20260503170322 23 279 8.0 9.7 0.00 0.00 0.00 27 1024.8
20260503150715 22 90 3.2 3.2 0.00 0.00 0.00 37 1025.9
20260503150211 22 152 1.6 1.6 0.00 0.00 0.00 36 1025.9
20260503140135 20 233 1.6 1.6 0.00 0.00 0.00 49 1025.3
20260503131104 16 249 1.6 1.6 0.00 0.00 0.00 61 1024.7
20260503130602 15 330 1.6 3.2 0.00 0.00 0.00 64 1024.6
20260503110452 7 218 1.6 1.6 0.00 0.00 0.00 90 1023.9
20260503090338 8 250 0.0 0.0 0.00 0.00 0.00 89 1023.1
20260503081305 8 292 0.0 1.6 0.00 0.00 0.00 87 1023.0
20260503080801 8 283 1.6 1.6 0.00 0.00 0.00 88 1022.8
20260503080259 8 291 0.0 0.0 0.00 0.00 0.00 89 1022.7
20260503072735 8 309 0.0 0.0 0.00 0.00 0.00 86 1022.6
20260503072232 9 301 0.0 0.0 0.00 0.00 0.00 85 1022.7
20260503071729 9 294 0.0 0.0 0.00 0.00 0.00 85 1022.7
20260503071226 9 294 0.0 1.6 0.00 0.00 0.00 85 1022.6
20260503070722 9 290 0.0 0.0 0.00 0.00 0.00 85 1022.8
20260503070220 9 258 0.0 1.6 0.00 0.00 0.00 85 1022.7
20260503060145 10 290 0.0 0.0 0.00 0.00 0.00 82 1022.3
20260503054632 10 285 0.0 0.0 0.00 0.00 0.00 80 1022.2
20260503054129 10 299 1.6 1.6 0.00 0.00 0.00 80 1022.3
20260503053627 10 295 0.0 0.0 0.00 0.00 0.00 81 1022.4
20260503053126 10 296 0.0 0.0 0.00 0.00 0.00 81 1022.6
20260503052621 10 284 0.0 0.0 0.00 0.00 0.00 81 1022.5
20260503052118 10 283 0.0 0.0 0.00 0.00 0.00 81 1022.4
20260503051613 10 282 0.0 0.0 0.00 0.00 0.00 82 1022.4
20260503051111 10 292 0.0 0.0 0.00 0.00 0.00 82 1022.4
20260503050608 10 292 0.0 0.0 0.00 0.00 0.00 81 1022.1
20260503050105 11 291 0.0 0.0 0.00 0.00 0.00 80 1022.0
20260503045601 11 292 0.0 0.0 0.00 2.82 2.82 79 1022.1
20260503045059 11 292 0.0 0.0 0.00 2.82 2.82 79 1022.1
20260503044555 11 276 0.0 0.0 0.00 2.82 2.82 78 1022.0
20260503044053 11 289 0.0 0.0 0.00 2.82 2.82 78 1022.1
20260503043549 11 268 0.0 0.0 0.00 2.82 2.82 77 1021.9
20260503043046 11 306 0.0 1.6 0.00 2.82 2.82 76 1022.0
20260503042543 11 310 0.0 1.6 0.00 2.82 2.82 74 1022.1
20260503042039 11 294 0.0 1.6 0.00 2.82 2.82 74 1021.8
20260503041536 11 283 0.0 1.6 0.00 2.82 2.82 75 1021.7
20260503041034 11 303 0.0 0.0 0.00 2.82 2.82 76 1021.9
20260503040531 11 285 0.0 0.0 0.00 2.82 2.82 76 1022.0
20260503040028 11 297 0.0 0.0 0.00 2.82 2.82 76 1021.9